Vorticity
nan nan nan nan nan nan nan nan nan nan nan nan nan nan nan nan nan nan nan nan nan nan nan nan nan nan nan nan nan nan nan nan nan nan nan nan nan nan nan nan nan nan nan nan nan nan nan nan nan nan nan nan nan nan nan nan nan nan nan nan nan nan nan nan nan nan nan nan nan nan nan nan nan nan nan nan nan nan nan nan nan nan nan nan nan nan
nan 9 8 9 10 11 10 10 11 11 8 7 7 6 4 5 8 12 15 15 14 13 12 10 9 9 9 11 10 10 10 10 9 9 9 10 9 9 9 9 9 8 8 9 9 8 8 8 8 8 8 8 8 8 8 9 9 9 9 9 9 9 9 9 9 9 9 9 9 9 9 9 9 9 9 9 10 10 11 11 11 11 11 11 11 nan
nan 10 9 12 13 12 9 10 13 12 10 9 7 3 2 8 12 12 12 13 14 13 11 9 8 10 12 13 13 12 10 10 10 9 9 9 9 9 9 9 9 9 9 9 9 9 9 9 9 8 8 9 9 9 9 9 9 9 9 9 9 9 9 9 9 9 9 9 9 9 9 9 9 9 9 9 10 10 10 11 10 11 11 11 11 nan
nan 10 10 12 13 12 8 9 11 12 13 10 8 7 10 15 15 12 9 9 10 11 11 9 9 10 14 15 14 12 9 9 8 8 8 8 9 9 9 9 10 10 10 10 10 9 9 9 9 9 9 9 9 9 9 9 9 9 9 9 9 8 8 8 8 8 8 9 9 9 9 9 9 9 10 10 11 11 11 11 11 10 11 11 11 nan
nan 9 10 10 11 12 12 11 11 12 12 11 12 13 17 16 13 10 9 9 9 10 12 13 12 12 11 10 9 7 8 8 8 8 9 10 10 10 10 11 11 11 11 11 11 11 10 10 10 10 10 10 10 10 10 10 9 9 9 8 8 8 8 7 8 8 8 9 10 10 10 10 11 10 11 11 11 11 12 12 12 11 11 11 11 nan
nan 9 10 10 10 10 12 12 12 11 11 13 14 15 15 13 10 9 8 10 11 12 11 12 12 12 10 7 6 7 10 11 11 11 12 12 12 12 12 12 12 12 12 12 11 11 10 10 10 10 10 10 10 10 10 10 10 9 9 8 8 8 8 8 8 8 9 10 11 11 11 11 11 11 11 12 12 12 13 12 12 12 12 12 12 nan
nan 9 9 9 9 9 10 10 10 10 10 11 13 13 13 12 10 9 8 9 10 11 11 11 11 12 11 9 9 12 15 16 18 19 18 17 16 16 14 13 13 13 12 12 11 11 11 10 10 10 10 11 11 11 10 10 10 10 10 9 10 9 9 9 9 9 10 10 11 11 11 11 11 11 11 12 12 12 12 12 12 12 12 12 12 nan
nan 8 8 8 9 9 9 9 10 10 9 9 9 10 10 11 10 10 11 12 12 11 11 11 11 11 10 10 12 15 16 17 20 21 20 22 21 19 17 16 14 13 13 12 12 11 11 11 11 11 11 11 11 11 11 11 11 11 11 11 11 11 11 11 10 10 10 10 10 10 10 11 11 11 11 11 12 12 11 11 11 11 12 12 12 nan
nan 8 9 9 9 8 9 11 11 10 9 8 7 7 8 8 9 11 13 14 13 12 10 9 9 9 8 10 12 12 11 12 11 9 10 13 12 12 13 15 17 17 15 14 13 13 13 13 13 12 12 11 11 11 11 11 11 11 12 12 12 13 13 12 12 11 10 10 10 10 10 10 10 11 11 11 11 11 11 11 11 11 11 11 11 nan
nan 9 10 11 11 9 8 9 10 10 9 8 8 8 8 8 10 10 10 11 11 10 8 7 8 9 10 11 11 10 11 11 9 7 7 5 4 6 10 14 16 16 15 15 15 15 14 14 13 12 11 11 11 11 11 11 11 12 12 12 12 12 12 13 12 12 11 10 10 10 10 11 11 11 11 11 10 10 11 10 10 11 11 12 12 nan
nan 12 12 12 11 10 9 8 9 9 11 12 12 12 10 9 9 8 8 9 8 8 8 8 9 9 10 11 11 11 13 14 16 17 19 17 17 19 20 20 18 16 17 18 18 17 15 13 12 12 12 11 11 12 12 13 13 12 11 12 12 12 12 12 12 12 11 11 11 10 10 11 10 10 10 10 10 10 10 10 11 11 12 12 12 nan
nan 12 12 10 9 9 10 10 9 10 11 13 12 11 10 10 9 8 8 8 8 8 9 10 10 10 9 10 11 12 13 13 14 17 21 23 26 28 27 25 23 22 23 23 23 21 17 14 13 13 13 13 13 13 13 14 13 12 12 12 12 12 12 12 12 11 11 11 10 10 10 10 10 9 9 10 10 9 10 10 10 10 11 11 12 nan
nan 9 9 8 8 8 9 9 9 10 10 10 9 8 9 9 9 9 9 8 8 8 10 10 9 10 11 11 11 10 11 12 12 13 14 16 18 19 19 17 18 18 20 20 20 18 15 17 19 19 16 16 15 15 15 14 13 12 12 11 12 11 11 11 11 10 10 9 10 10 10 10 9 9 9 9 9 9 9 9 10 10 10 11 11 nan
nan 8 7 7 8 8 8 8 8 8 8 8 8 8 8 7 7 8 9 8 8 9 9 8 9 11 13 13 12 11 11 12 12 12 10 10 10 10 9 10 11 11 11 11 11 9 11 18 22 23 21 18 16 16 16 13 11 10 10 9 9 9 9 9 10 10 9 9 10 10 10 10 10 10 10 10 10 10 10 10 11 11 11 11 11 nan
nan 8 8 8 8 9 9 9 9 9 8 8 8 8 8 7 8 9 9 8 9 10 11 11 12 13 12 12 12 11 12 11 11 10 9 9 8 7 8 9 9 8 8 8 8 8 13 18 18 16 17 14 12 10 8 8 8 8 8 8 8 9 9 9 10 10 10 10 10 10 11 11 10 10 10 10 10 11 11 11 11 12 12 12 12 nan
nan 9 8 8 9 8 8 8 9 8 9 8 8 8 9 9 10 10 9 10 11 12 12 12 14 16 14 11 10 10 11 11 10 8 8 9 8 7 8 9 9 9 8 8 9 11 15 15 13 12 11 8 6 4 5 6 6 7 7 7 8 9 9 9 10 10 10 11 11 11 11 11 11 10 10 10 10 10 10 11 11 11 11 11 12 nan
nan 9 9 9 9 8 8 9 9 8 9 9 9 9 9 9 10 11 10 11 11 11 10 10 11 14 13 11 10 10 10 10 10 8 8 8 8 9 10 11 10 9 9 10 10 11 12 12 12 11 7 3 2 4 6 6 7 7 8 9 9 9 10 10 10 10 10 10 10 10 10 10 10 10 9 9 9 9 9 9 9 10 10 10 10 nan
nan 8 9 9 9 9 9 9 10 10 10 9 9 9 9 9 9 9 9 10 9 8 8 9 9 8 7 7 7 5 7 10 9 9 9 10 10 10 11 12 10 9 9 10 10 10 11 11 8 4 -3 -4 1 5 7 8 8 9 10 10 10 10 9 9 9 9 9 9 10 10 9 9 10 9 9 9 9 9 9 9 9 9 9 9 9 nan
nan 9 9 9 9 8 8 8 8 9 9 8 8 8 9 9 9 9 10 10 10 9 10 9 8 7 7 4 1 1 6 11 10 10 10 10 10 9 11 12 11 10 10 11 11 11 11 10 6 2 -2 3 6 8 9 9 9 10 9 9 9 9 8 8 8 9 9 9 10 10 9 9 10 10 10 10 10 10 10 9 9 9 8 8 8 nan
nan 8 8 8 9 10 10 9 7 6 4 5 6 7 9 9 9 10 11 11 10 10 12 9 8 8 8 5 3 3 7 11 13 13 13 12 11 11 12 13 12 11 11 11 10 10 10 10 11 12 11 10 9 9 9 9 9 9 8 8 8 8 9 9 9 10 10 10 10 10 10 10 10 11 11 11 11 10 10 10 10 9 9 10 10 nan
nan 9 6 4 6 8 10 7 5 2 2 4 7 10 11 10 10 10 10 10 10 11 9 7 6 5 5 5 5 5 9 13 14 14 15 13 11 10 11 12 12 11 10 10 9 9 10 11 12 11 9 5 6 7 7 8 8 8 9 9 9 9 10 10 11 11 11 11 11 11 11 11 11 11 11 11 11 11 12 11 11 12 12 13 14 nan
nan 9 7 5 5 5 5 4 5 5 6 9 11 11 12 10 9 9 10 11 10 8 4 3 3 4 5 7 7 9 12 14 12 12 12 10 8 9 11 11 11 10 10 10 10 10 10 11 9 6 2 2 4 7 8 9 9 9 9 9 10 10 11 11 12 12 12 12 12 13 12 12 12 12 12 13 13 13 13 13 13 14 15 16 17 nan
nan 7 8 11 10 7 6 7 9 12 14 14 13 10 8 8 9 10 11 9 7 5 4 6 7 8 9 10 10 11 13 13 12 13 10 9 9 10 10 11 10 10 10 9 10 10 11 11 9 7 7 6 9 9 9 10 10 10 10 10 11 12 13 13 14 14 14 14 14 14 14 13 13 13 13 14 13 13 13 13 15 15 15 15 14 nan
nan 8 10 11 10 7 6 6 6 8 11 12 12 11 8 7 5 5 4 3 4 6 8 9 10 11 12 11 12 13 13 13 13 14 11 12 10 8 7 9 9 10 10 10 9 10 11 11 10 10 10 10 11 10 10 11 11 11 12 13 14 14 14 15 15 14 14 14 14 13 13 13 13 12 12 12 12 12 13 15 16 16 14 12 9 nan
nan 4 4 1 -2 -5 -9 -10 -9 -8 -6 2 7 9 7 3 2 2 4 6 8 9 9 9 10 12 13 14 15 14 13 13 13 13 11 11 9 8 7 9 11 11 11 10 10 10 10 10 9 9 9 12 12 13 13 14 14 14 15 15 15 15 14 14 14 13 12 11 11 11 11 11 12 11 11 12 14 15 16 16 15 13 10 9 9 nan
nan -11 -13 -14 -13 -14 -16 -17 -17 -17 -17 -12 -8 -5 -2 4 7 10 10 10 10 9 10 11 12 11 11 13 13 12 12 13 13 13 9 7 7 9 10 11 11 11 10 10 10 9 8 8 9 10 10 13 15 17 16 17 16 17 16 15 14 13 12 11 10 10 10 9 9 10 11 12 12 13 13 14 15 15 15 12 10 8 9 12 17 nan
nan -9 -10 -9 -7 -5 -4 -4 -4 -3 -2 -7 -11 -11 -3 7 11 11 10 10 10 11 12 12 11 11 12 12 10 9 9 11 12 11 8 8 10 11 10 11 11 10 11 11 9 7 7 10 10 11 12 13 16 18 18 17 17 16 15 12 11 10 10 9 9 9 10 10 11 12 12 13 13 14 14 14 14 12 10 8 8 9 14 23 32 nan
nan 8 8 7 8 9 10 13 15 15 15 9 5 5 11 14 13 11 10 10 11 13 12 10 10 11 12 11 9 8 9 11 11 10 12 13 12 10 9 9 10 10 13 12 11 10 13 14 13 13 13 12 13 14 17 16 17 16 15 12 11 11 11 11 11 11 11 12 12 12 13 13 13 13 13 13 12 10 9 8 11 17 28 36 36 nan
nan 22 22 22 22 23 24 25 25 22 18 15 16 19 21 18 14 11 11 11 12 13 11 10 10 10 10 10 10 12 13 13 12 12 15 14 12 8 7 7 8 10 14 14 15 17 17 16 14 13 11 10 11 12 13 15 18 19 19 17 17 17 15 14 13 13 12 13 12 12 12 12 12 12 12 11 11 10 9 10 17 28 36 31 24 nan
nan 28 30 30 30 30 29 27 25 22 19 18 20 22 22 17 14 12 11 12 13 12 11 11 11 10 9 11 14 17 17 14 12 11 14 15 12 8 6 8 9 10 13 14 15 16 15 15 13 11 8 9 10 11 10 13 16 18 19 21 23 21 17 15 14 14 14 13 13 12 12 12 11 11 11 11 11 10 10 13 21 30 29 19 15 nan
nan 23 24 23 23 23 22 20 19 19 20 22 25 25 21 16 13 12 13 12 13 12 12 11 10 10 9 11 12 13 13 8 6 6 12 15 11 7 7 10 10 11 11 10 9 8 12 14 11 9 8 10 11 10 9 11 12 14 15 17 19 17 14 15 16 17 17 15 14 13 12 12 12 12 12 11 11 11 10 13 20 24 20 13 11 nan
nan 14 13 13 13 14 15 15 15 16 18 21 23 22 18 14 13 12 12 12 12 12 11 10 10 10 10 8 6 6 4 2 1 3 10 14 11 9 9 10 9 10 10 8 6 6 9 8 7 7 9 11 12 11 11 11 11 11 11 12 13 11 12 16 19 20 19 17 16 16 15 14 14 14 13 13 13 12 11 13 16 18 13 11 10 nan
nan 9 8 10 11 12 12 11 11 11 13 15 15 14 15 15 13 12 11 12 12 12 11 10 10 11 11 9 8 6 2 1 0 3 10 14 12 10 8 8 8 9 10 11 11 10 7 2 3 6 10 12 12 11 11 11 11 10 11 11 11 9 13 17 19 19 17 17 19 20 19 20 20 18 17 16 15 14 12 11 11 9 6 8 8 nan
nan 9 9 10 11 11 10 9 9 10 11 11 11 11 12 13 13 13 12 12 12 12 11 11 10 10 10 11 11 9 5 4 2 5 11 13 11 8 7 8 9 10 11 12 12 12 8 3 4 6 9 11 11 11 11 11 12 12 12 11 10 9 12 14 15 14 13 16 18 19 21 23 23 22 21 18 16 13 9 8 7 5 5 5 4 nan
nan 10 11 11 11 10 9 10 10 11 11 11 12 12 12 12 12 12 13 12 12 12 11 10 9 9 9 8 8 8 6 4 4 6 10 11 9 7 9 10 10 9 9 10 10 11 8 7 6 7 7 8 11 12 12 11 11 12 11 10 9 9 9 10 11 11 13 14 15 15 17 18 18 19 18 13 10 7 5 6 7 8 9 6 5 nan
nan 11 11 11 11 10 10 11 12 13 13 13 12 12 11 11 11 11 12 11 11 10 9 8 7 6 5 5 5 5 5 4 5 6 8 9 7 7 9 9 8 7 8 9 9 9 8 8 9 9 8 10 11 12 11 10 10 10 9 10 10 10 10 10 11 11 13 12 12 12 11 11 12 12 9 5 6 7 9 10 12 13 13 12 9 nan
nan 10 10 10 11 11 12 13 13 13 13 12 11 10 10 10 10 9 10 9 8 8 8 9 9 7 1 1 2 2 3 1 2 3 4 6 7 7 6 6 6 7 9 9 9 8 8 9 10 12 13 12 9 6 5 7 9 10 9 9 10 11 11 12 12 13 12 10 10 8 8 9 10 10 7 9 14 18 19 21 21 19 17 18 15 nan
nan 9 9 10 11 11 12 12 12 11 11 10 10 9 9 9 8 8 9 9 8 8 9 10 12 12 8 4 2 0 1 -1 -0 1 5 8 9 8 6 5 7 8 8 8 8 8 8 9 9 11 13 11 7 4 5 7 9 9 10 10 11 12 12 13 13 13 11 10 9 8 9 12 12 12 11 15 19 20 22 22 20 19 21 24 22 nan
nan 9 10 10 11 11 11 10 10 10 10 9 9 8 9 9 11 12 12 12 13 14 12 9 10 13 16 15 12 10 7 9 10 12 14 13 10 8 6 6 8 9 9 10 9 9 8 9 8 7 7 8 9 10 11 9 7 7 9 13 15 15 12 10 10 10 10 11 11 12 14 14 13 11 10 12 12 12 14 14 15 16 21 24 24 nan
nan 10 11 11 12 11 10 9 9 9 9 9 9 11 12 14 16 17 16 15 15 16 16 13 12 12 15 18 18 17 15 16 17 17 19 14 8 5 7 8 8 9 10 11 10 10 9 8 7 7 7 7 7 7 8 7 5 4 7 13 13 10 7 8 9 11 12 12 12 13 12 10 9 8 9 9 9 10 11 11 10 11 14 16 17 nan
nan 10 11 12 12 11 11 10 9 8 9 10 12 13 14 14 14 14 14 14 14 14 16 16 15 14 15 16 17 17 18 17 16 16 16 13 11 9 8 8 9 9 10 10 10 10 9 8 8 9 9 8 7 8 7 5 4 5 11 12 7 3 5 9 13 14 13 11 11 9 7 8 9 10 10 10 11 11 9 7 6 7 11 13 12 nan
nan 12 11 11 11 11 9 8 9 10 11 12 12 12 12 11 11 10 10 11 12 12 12 13 13 13 14 15 16 18 19 18 17 15 13 15 14 11 7 6 7 8 10 11 10 10 9 9 9 9 9 9 10 10 8 7 9 12 13 9 7 9 16 18 16 13 11 10 9 9 10 12 12 11 10 11 12 11 10 8 6 7 11 13 12 nan
nan 12 10 10 9 9 9 11 12 13 14 12 11 10 10 9 8 9 9 11 10 10 11 11 11 11 11 12 14 17 18 17 14 12 12 12 11 10 8 7 6 7 8 10 11 11 11 11 10 9 9 10 10 8 7 9 11 13 12 9 10 14 16 13 10 9 9 10 10 11 12 12 11 10 10 12 12 12 12 12 14 16 15 13 12 nan
nan 11 10 11 11 11 11 12 12 11 11 10 10 10 9 9 9 10 12 11 10 10 11 11 12 12 12 12 12 14 15 16 16 16 14 11 10 8 10 12 12 11 9 8 9 10 11 12 12 10 10 10 10 9 9 9 10 10 10 10 11 11 5 2 3 7 10 11 11 10 9 10 10 11 11 12 12 13 13 15 16 16 15 14 13 nan
nan 11 10 11 10 10 9 9 9 10 10 10 10 10 10 11 12 13 11 10 10 10 10 11 12 13 12 12 12 12 13 14 15 17 17 15 14 14 15 16 16 16 14 11 8 7 8 9 10 10 11 11 10 9 9 9 9 10 10 11 12 12 8 5 6 9 10 10 10 8 8 10 11 12 12 12 12 12 12 12 12 12 14 14 12 nan
nan 9 9 10 10 9 9 10 10 10 10 10 10 10 11 12 13 12 10 10 10 11 11 11 11 9 8 9 10 11 11 11 11 12 13 15 17 19 19 17 15 14 14 12 10 8 6 6 6 6 9 11 11 12 11 10 10 10 10 11 12 12 12 11 10 10 10 10 9 8 8 12 13 13 11 10 11 12 13 13 12 11 12 12 12 nan
nan 8 9 9 10 10 10 10 10 10 10 10 11 11 11 11 11 11 11 11 11 11 11 12 10 8 8 8 9 8 8 9 9 10 10 11 13 15 16 16 15 13 12 10 10 9 8 7 6 5 6 8 10 12 12 11 10 9 9 10 11 11 11 11 10 10 11 11 9 7 10 15 15 13 10 11 12 13 13 13 13 13 13 13 12 nan
nan 9 9 9 9 10 10 10 10 10 10 10 11 10 10 9 8 9 11 11 12 11 12 11 10 10 11 10 9 8 7 8 9 10 10 11 13 14 14 13 14 14 13 12 12 13 13 13 11 9 7 7 7 8 9 10 10 10 9 10 10 11 10 10 10 10 12 11 9 9 12 14 12 11 11 12 12 12 10 11 12 13 14 13 12 nan
nan 10 10 9 9 10 10 10 10 10 10 10 10 10 10 9 10 13 13 12 12 12 11 10 10 10 11 11 10 9 9 10 11 11 11 11 12 12 11 11 12 12 14 15 17 18 20 22 21 18 12 8 6 5 7 9 10 10 10 10 11 11 11 10 10 10 11 10 10 12 13 12 11 11 12 11 10 8 9 11 12 13 13 13 12 nan
nan 10 10 10 10 10 10 10 10 10 10 10 10 10 10 12 14 14 13 12 12 11 10 10 10 10 10 9 9 9 11 12 11 10 10 11 10 10 9 10 11 12 14 16 17 18 21 24 27 28 24 14 8 5 7 8 9 10 11 11 11 11 12 11 10 10 9 10 11 13 13 13 13 13 13 11 9 9 11 12 12 11 12 11 10 nan
nan nan nan nan nan nan nan nan nan nan nan nan nan nan nan nan nan nan nan nan nan nan nan nan nan nan nan nan nan nan nan nan nan nan nan nan nan nan nan nan nan nan nan nan nan nan nan nan nan nan nan nan nan nan nan nan nan nan nan nan nan nan nan nan nan nan nan nan nan nan nan nan nan nan nan nan nan nan nan nan nan nan nan nan nan nan
CAPE
nan nan nan nan nan nan nan nan nan nan nan nan nan nan nan nan nan nan nan nan nan nan nan nan nan nan nan nan nan nan 1 2 4 4 7 10 12 12 14 15 15 17 19 21 21 23 24 26 26 31 34 40 43 43 47 52 52 56 63 66 66 71 72 74 74 77 77 80 76 76 70 71 78 78 87 101 114 114 125 126 126 137 154 176 176 197
nan nan nan nan nan nan nan nan nan nan nan nan nan nan nan nan nan nan nan nan nan nan nan nan nan nan nan nan 0 0 2 4 8 8 11 15 18 18 18 20 20 21 22 23 23 25 24 25 25 29 30 33 35 35 40 44 44 49 55 58 58 63 65 67 67 69 69 67 66 66 61 67 83 83 97 112 127 127 134 142 142 157 186 215 215 225
nan nan nan nan nan nan nan nan nan nan nan nan nan nan nan nan nan nan nan nan nan nan nan nan nan nan nan nan 3 3 5 9 13 13 16 19 21 21 23 24 24 24 24 25 25 25 26 26 26 27 28 28 31 31 34 37 37 41 45 49 49 50 55 54 54 59 59 58 56 56 59 70 90 90 104 123 139 139 148 153 153 178 216 243 243 255
nan nan nan nan nan nan nan nan nan nan nan nan nan nan nan nan nan nan nan nan nan nan nan nan nan nan nan 0 4 4 8 13 17 17 18 21 25 25 25 26 26 26 27 29 29 29 28 30 30 29 29 31 30 30 33 35 35 39 42 44 44 46 47 47 47 49 52 54 54 54 64 81 97 97 109 129 149 149 158 170 170 190 220 249 249 262
nan nan nan nan nan nan nan nan nan nan nan nan nan nan nan nan nan nan nan nan nan nan 0 0 0 nan nan nan 2 2 10 14 19 19 22 26 27 27 28 28 28 29 30 33 33 34 35 35 35 33 33 33 35 35 35 39 39 40 42 44 44 46 47 50 50 51 54 56 61 61 72 85 98 98 112 139 157 157 172 187 187 211 235 253 253 262
nan nan nan nan nan nan nan nan nan nan nan nan nan nan nan nan nan nan nan nan nan nan nan 0 0 0 nan nan 5 5 11 16 22 22 25 27 29 29 31 32 32 35 35 36 36 38 39 37 37 40 37 39 40 40 41 44 44 42 45 46 46 48 52 57 57 58 59 62 66 66 73 82 89 89 106 130 153 153 178 194 194 217 249 262 262 269
nan nan nan nan nan nan nan nan nan nan nan nan nan nan nan nan nan nan nan nan nan nan nan nan nan nan 1 3 8 8 14 19 24 24 24 26 29 29 31 31 31 35 34 37 37 40 41 40 40 39 40 42 43 43 43 46 46 44 45 47 47 52 56 59 59 61 59 65 64 64 68 77 81 81 95 112 136 136 165 187 187 208 249 270 270 277
nan nan nan nan nan nan nan nan nan nan nan nan nan nan nan nan nan nan 0 6 6 8 3 1 1 2 6 15 23 23 15 8 10 10 14 20 23 23 25 32 32 36 41 43 43 44 44 44 44 45 47 48 51 51 50 48 48 47 48 53 53 54 55 58 58 62 62 61 64 64 66 70 71 71 76 84 104 104 120 146 146 172 192 217 217 236
nan nan nan nan nan nan nan nan nan nan nan nan nan nan nan nan nan nan 0 0 0 3 2 2 2 2 3 7 14 14 17 16 13 13 17 10 10 10 19 33 33 40 43 44 44 44 45 44 44 46 47 48 48 48 46 42 42 39 40 45 45 49 51 56 56 61 62 63 66 66 68 68 70 70 72 79 91 91 103 119 119 140 169 188 188 213
nan nan nan nan nan nan nan nan nan nan nan 0 0 0 2 0 nan nan 1 1 1 1 1 2 2 1 1 3 9 9 13 20 36 36 38 23 37 37 29 26 26 28 39 41 41 43 43 41 41 40 39 39 39 39 38 37 37 33 34 38 38 43 48 51 51 58 59 63 65 65 68 70 70 70 75 79 88 88 95 102 102 110 134 163 163 187
nan nan nan nan nan nan nan nan nan nan nan nan nan nan nan 0 1 1 0 0 0 0 1 2 2 3 3 6 15 15 12 9 10 10 22 24 24 24 25 25 25 27 30 31 31 30 29 31 31 32 34 35 37 37 34 30 30 28 31 34 34 42 46 50 50 55 61 64 65 65 64 66 72 72 72 76 80 80 86 86 86 89 105 125 125 158
nan nan nan nan nan nan nan nan nan nan nan nan nan nan nan 0 7 7 1 nan nan 0 1 2 2 4 6 7 8 8 9 7 6 6 8 12 14 14 14 14 14 13 15 19 19 19 25 26 26 30 28 29 30 30 30 27 27 29 31 36 36 40 46 50 50 55 59 62 63 63 63 64 65 65 69 70 75 75 76 82 82 84 92 104 104 132
nan nan nan nan nan nan nan nan nan nan nan nan nan nan nan nan 2 2 4 2 2 1 1 1 1 3 6 6 3 3 5 8 7 7 8 6 7 7 8 9 9 8 8 8 8 10 19 24 24 25 23 22 25 25 28 28 28 30 31 35 35 41 44 48 48 51 59 61 62 62 59 62 65 65 66 70 73 73 77 79 79 83 92 102 102 117
nan nan nan nan nan nan nan nan nan nan nan nan nan nan nan 0 1 1 2 2 2 1 3 3 3 3 2 5 6 6 7 6 8 8 6 6 7 7 9 10 10 6 5 3 3 3 13 14 14 12 19 20 23 23 26 27 27 30 30 32 32 37 43 46 46 51 56 58 60 60 63 65 65 65 70 71 74 74 78 81 81 84 93 103 103 113
nan nan nan nan nan nan nan nan nan nan nan nan nan nan nan nan 1 1 2 2 2 3 4 5 5 5 3 4 8 8 8 13 13 13 9 8 9 9 10 11 11 11 6 4 4 5 11 8 8 6 9 15 17 17 22 25 25 27 25 28 28 33 38 43 43 49 55 59 64 64 70 74 76 76 74 74 72 72 73 75 75 82 87 95 95 104
nan nan nan nan nan nan nan nan nan nan nan nan 0 0 0 1 1 1 2 4 4 3 4 2 2 3 6 5 4 4 1 9 18 18 14 9 13 13 12 7 7 8 7 3 3 2 4 4 4 7 9 12 15 15 19 26 26 25 26 27 27 30 34 40 40 46 53 62 70 70 78 79 80 80 76 72 68 68 63 65 65 70 77 87 87 92
0 nan nan nan nan nan nan nan nan nan nan nan 0 0 2 4 2 2 3 3 3 6 12 3 3 0 4 4 11 11 4 4 21 21 15 9 7 7 4 3 3 8 7 3 3 2 3 3 3 2 5 15 18 18 18 22 22 23 25 27 27 32 35 40 40 45 51 63 73 73 74 77 73 73 73 67 59 59 57 60 60 62 69 74 74 82
1 0 0 nan nan nan nan nan nan nan 2 0 1 1 4 6 6 6 6 3 3 10 11 4 4 0 nan 3 8 8 7 4 20 20 16 9 2 2 2 1 1 3 4 3 3 4 3 4 4 5 8 18 21 21 23 23 23 25 27 31 31 34 35 40 40 45 52 65 71 71 73 70 72 72 69 66 62 62 61 61 61 63 66 71 71 79
1 1 1 0 0 0 0 nan 0 0 2 2 3 3 7 9 5 5 2 3 3 9 3 nan nan 1 0 3 3 3 6 5 15 15 9 7 1 1 4 0 0 6 4 4 4 5 5 6 6 13 17 18 23 23 24 23 23 26 28 32 32 33 35 37 37 46 58 66 72 72 73 73 72 72 71 73 72 72 73 77 77 75 72 72 72 75
2 2 3 1 1 1 1 0 1 1 3 6 9 9 7 8 4 4 3 2 2 2 3 0 0 1 3 7 5 5 6 7 13 13 6 6 3 3 2 2 2 3 2 4 4 4 5 5 5 7 11 17 21 21 22 25 25 25 27 30 30 31 32 41 41 52 67 72 76 76 74 75 74 74 71 78 79 79 84 87 87 87 88 87 87 90
2 3 2 3 3 3 3 1 1 1 4 11 13 13 10 7 7 7 6 1 1 2 2 8 8 8 4 2 4 4 7 8 9 9 3 3 2 2 2 3 3 2 2 2 2 3 5 7 7 7 11 17 20 20 22 23 23 24 28 30 30 31 37 48 48 61 73 77 75 75 74 76 76 76 77 81 84 84 91 97 97 100 106 105 105 109
3 3 2 5 5 5 6 3 7 7 14 25 12 12 6 2 1 1 4 2 2 3 8 14 14 15 6 5 4 4 8 8 8 8 2 1 1 1 2 3 3 1 2 1 1 2 4 4 4 3 11 19 20 20 24 26 26 28 29 30 30 34 45 56 56 66 72 72 71 71 71 75 78 78 85 88 94 94 100 106 106 111 115 117 117 127
4 4 2 5 5 6 7 8 12 12 17 23 8 8 0 nan nan nan 0 3 3 9 25 14 14 6 7 6 7 7 6 1 1 1 0 1 2 2 1 0 0 nan 0 nan nan 1 3 2 2 3 12 22 21 21 25 25 25 28 31 34 34 39 50 60 60 66 70 68 72 72 73 76 83 83 90 95 102 102 107 110 110 110 112 113 113 117
6 5 5 4 4 8 9 7 9 9 11 12 6 6 2 6 10 10 46 33 33 16 3 0 0 2 4 6 3 3 3 0 nan nan nan 1 2 2 1 nan nan nan 0 nan nan 0 2 2 2 2 7 16 21 21 25 25 25 28 32 38 38 46 57 60 60 63 65 65 68 68 71 77 78 78 83 87 87 87 91 100 100 110 109 102 102 96
6 5 5 5 5 17 9 5 10 10 9 4 3 3 12 40 44 44 21 4 4 3 3 2 2 1 3 6 2 2 2 1 0 0 0 0 3 3 2 1 1 nan 0 nan nan 1 1 0 0 1 4 9 19 19 24 27 27 31 37 45 45 54 59 60 60 60 62 66 67 67 66 66 65 65 67 68 78 78 91 106 106 111 89 76 76 67
11 10 9 10 10 24 26 28 33 33 37 35 61 61 59 39 7 7 1 2 2 1 1 1 1 1 1 1 nan nan nan 1 1 1 1 0 nan nan 1 1 1 0 0 0 0 3 0 nan nan 1 0 3 16 16 22 29 29 36 45 51 51 57 58 57 57 58 56 55 54 54 51 49 55 55 58 68 81 81 99 97 97 84 66 56 56 54
22 24 29 37 37 42 50 62 76 76 97 105 67 67 25 14 7 7 3 1 1 0 0 0 0 2 2 1 nan nan nan 2 0 0 nan nan 1 1 0 1 1 nan nan nan nan 2 2 1 1 0 1 1 8 8 24 31 31 40 47 48 48 51 51 48 48 47 45 45 41 41 39 42 47 47 55 63 77 77 88 73 73 62 57 47 47 56
24 28 35 41 41 48 55 70 89 89 106 100 83 83 47 19 9 9 3 2 2 1 1 0 0 1 1 1 nan nan nan 1 0 0 nan 0 1 1 0 0 0 nan nan 0 0 4 9 3 3 nan 0 1 5 5 20 32 32 36 39 40 40 39 41 43 43 43 40 36 33 33 33 37 43 43 49 56 62 62 62 53 53 50 46 34 34 25
23 26 33 40 40 53 68 83 91 91 87 80 72 72 43 9 4 4 2 2 2 0 1 1 1 1 1 1 0 0 0 1 1 1 0 2 2 2 0 nan nan nan nan 2 2 3 2 1 1 0 0 2 5 5 12 23 23 24 29 33 33 38 37 38 38 37 36 31 31 31 32 35 38 38 41 45 50 50 45 45 45 45 36 26 26 19
22 20 27 45 45 59 72 71 66 66 62 54 43 43 17 3 2 2 0 2 2 1 1 1 1 2 1 1 1 1 1 0 1 1 2 0 0 0 nan nan nan 0 nan 1 1 0 nan 0 0 0 0 3 3 3 4 9 9 11 18 30 30 29 30 29 29 30 30 30 30 30 31 34 34 34 36 38 38 38 38 37 37 35 23 17 17 14
22 25 42 51 51 46 35 30 26 26 25 20 12 12 4 1 nan nan 0 1 1 0 1 1 1 2 2 1 1 1 0 nan 3 3 1 0 1 1 0 nan nan 0 nan 1 1 1 0 nan nan 0 1 2 3 3 2 1 1 4 5 12 12 19 25 23 23 26 28 29 30 30 32 32 32 32 32 33 34 34 35 38 38 31 15 12 12 13
49 22 6 3 3 2 1 nan nan nan nan nan nan nan nan nan nan nan 0 1 1 1 0 3 3 5 3 1 1 1 1 1 3 3 4 1 4 4 5 4 4 4 2 4 4 0 1 1 1 nan nan nan nan nan 2 4 4 4 4 4 4 4 12 19 19 20 18 25 27 27 29 30 33 33 34 37 41 41 40 38 38 35 18 11 11 14
13 5 3 1 1 0 nan nan nan nan nan nan nan nan nan nan 1 1 2 2 2 1 2 4 4 5 3 3 1 1 3 2 7 7 10 2 3 3 7 7 7 6 4 3 3 2 0 1 1 nan 0 0 1 1 1 4 4 5 4 4 4 2 8 13 13 10 14 17 20 20 29 30 39 39 40 42 41 41 41 39 39 39 35 11 11 13
4 5 1 nan nan nan nan nan nan nan nan nan nan nan nan 0 2 2 3 1 1 2 6 6 6 6 4 4 1 1 2 1 7 7 8 2 4 4 10 9 9 6 6 7 7 7 0 0 0 nan nan 0 2 2 1 2 2 3 4 4 4 1 3 4 4 4 7 8 7 7 13 18 39 39 36 39 39 39 40 40 40 39 37 24 24 15
1 0 nan nan nan nan nan nan nan nan nan nan nan nan 0 1 1 1 2 3 3 3 6 9 9 6 5 4 3 3 3 1 7 7 12 3 3 3 10 9 9 7 10 11 11 6 0 2 2 5 2 1 1 1 1 1 1 2 2 3 3 2 2 3 3 5 4 4 6 6 5 10 17 17 23 31 37 37 41 40 40 37 38 41 41 29
nan nan nan nan nan nan nan nan nan nan nan nan nan nan 0 1 1 1 2 4 4 8 11 9 9 7 6 3 2 2 3 3 10 10 16 7 4 4 7 13 13 18 12 8 8 4 0 2 2 6 6 2 0 0 0 0 0 1 1 1 1 2 2 3 3 3 3 7 9 9 8 8 13 13 15 33 40 40 39 36 36 34 34 36 36 35
nan nan nan nan nan nan nan nan nan nan nan nan 0 0 1 1 2 2 2 9 9 8 6 11 11 11 17 6 7 7 7 9 14 14 23 13 7 7 9 17 17 22 3 2 2 2 2 5 5 6 4 2 0 0 0 1 1 1 0 1 1 0 1 2 2 4 3 7 8 8 8 13 15 15 23 36 32 32 32 33 33 31 34 35 35 37
nan nan nan nan nan nan nan nan nan nan nan 0 1 1 1 3 6 6 3 9 9 15 8 5 5 7 24 28 26 26 25 30 36 36 34 23 13 13 10 12 12 14 6 3 3 4 2 1 1 4 1 0 2 2 2 1 1 1 1 1 1 1 1 1 1 3 3 6 10 10 15 15 10 10 13 15 10 10 8 8 8 21 29 29 29 34
nan nan nan nan nan nan nan nan nan nan 0 0 0 0 1 2 6 6 6 6 6 7 7 7 7 4 16 27 29 29 33 35 36 36 34 28 17 17 12 7 7 11 11 7 7 3 2 0 0 1 1 0 2 2 2 1 1 0 1 1 1 1 2 3 3 3 5 5 11 11 12 11 8 8 7 6 4 4 4 3 3 12 13 9 9 23
nan nan nan nan nan nan nan 0 0 0 0 0 1 1 2 1 4 4 8 4 4 5 8 10 10 6 8 12 18 18 23 25 34 34 35 32 20 20 8 5 5 6 7 6 6 4 3 2 2 4 3 nan 1 1 1 1 1 1 4 1 1 0 1 3 3 3 2 2 5 5 4 5 6 6 6 6 6 6 4 3 3 7 12 4 4 5
nan nan nan nan nan nan 0 0 0 0 0 0 1 1 1 2 1 1 1 4 4 6 5 8 8 5 7 7 11 11 11 18 26 26 27 28 22 22 12 6 6 6 4 6 6 6 7 5 5 5 4 1 1 1 1 2 2 7 8 2 2 0 2 4 4 3 1 3 5 5 8 9 11 11 8 8 5 5 6 5 5 7 10 5 5 2
0 0 0 nan nan 0 0 0 1 1 1 1 2 2 1 1 2 2 2 2 2 3 4 6 6 6 6 2 5 5 8 14 19 19 13 10 11 11 13 9 9 4 4 6 6 10 10 8 8 8 3 0 nan nan 0 2 2 4 5 1 1 2 4 4 4 2 1 5 6 6 11 7 3 3 5 4 3 3 6 7 7 16 15 5 5 3
0 0 0 0 0 0 0 2 2 2 1 1 1 1 1 1 2 2 3 3 3 4 6 7 7 8 6 4 4 4 9 17 22 22 16 9 8 8 13 11 11 7 4 3 3 9 13 11 11 3 1 0 nan nan 1 3 3 2 2 2 2 1 nan 1 1 1 2 3 2 2 5 2 1 1 1 1 1 1 3 10 10 22 21 4 4 4
1 0 0 0 0 0 1 1 1 1 1 1 1 1 1 1 3 3 4 4 4 6 6 7 7 6 4 3 5 5 7 10 16 16 13 12 8 8 10 10 10 9 8 4 4 5 7 6 6 1 1 nan nan nan 1 2 2 1 1 2 2 1 nan 1 1 2 2 3 3 3 3 2 1 1 1 2 1 1 1 2 2 0 10 6 6 4
0 nan nan 0 0 0 1 1 1 1 1 1 1 1 1 2 5 5 5 4 4 5 6 6 6 6 4 4 3 3 6 7 7 7 8 10 12 12 9 8 8 9 10 9 9 6 4 3 3 1 1 0 0 0 0 0 0 1 3 4 4 2 1 3 3 2 2 1 1 1 3 3 1 1 1 1 0 0 0 0 0 1 2 3 3 3
0 0 0 0 0 0 1 1 1 1 1 1 1 1 1 2 4 4 5 4 4 4 5 7 7 5 4 4 4 4 5 6 4 4 3 6 8 8 9 9 9 9 10 12 12 12 6 4 4 3 2 2 1 1 0 1 1 0 1 3 3 1 0 1 1 1 0 1 1 1 3 4 2 2 1 1 nan nan 0 1 1 1 1 2 2 2
1 1 1 1 1 1 1 1 1 1 1 1 0 0 1 3 3 3 4 4 4 4 5 8 8 5 5 6 5 5 4 5 3 3 3 3 5 5 6 10 10 14 12 12 12 12 7 9 9 7 3 1 1 1 1 1 1 1 0 0 0 0 0 1 1 1 0 0 0 0 5 4 2 2 3 0 nan nan 0 1 1 1 2 2 2 2
2 1 2 1 1 1 1 1 1 1 0 0 0 0 1 2 2 2 3 4 4 4 7 5 5 5 6 5 5 5 5 4 4 4 4 4 6 6 6 6 6 8 9 13 13 15 11 9 9 10 9 3 1 1 0 0 0 1 0 0 0 0 0 1 1 1 1 1 4 4 6 3 2 2 2 0 0 0 1 1 1 1 1 2 2 2
3 2 2 1 1 1 1 1 0 0 0 nan 0 0 1 4 12 12 3 4 4 4 5 4 4 5 6 6 5 5 8 6 3 3 3 3 4 4 4 4 4 4 5 8 8 8 7 9 9 9 5 2 1 1 0 0 0 0 1 2 2 1 0 0 0 1 1 1 5 5 7 3 2 2 2 1 1 1 1 1 1 1 2 1 1 1
2 2 3 2 2 1 1 1 0 0 0 0 0 0 1 1 2 2 2 3 3 3 4 6 6 5 6 6 6 6 5 4 4 4 3 4 4 4 3 3 3 4 4 4 4 4 3 4 4 3 2 0 0 0 0 nan nan 0 2 1 1 0 0 0 0 2 2 2 4 4 8 5 3 3 1 2 1 1 1 1 1 0 1 2 2 2
3 2 2 2 2 2 2 0 0 0 0 1 1 1 1 1 1 1 1 2 2 2 3 4 4 6 6 7 6 6 6 5 4 4 4 3 3 3 3 3 3 3 3 2 2 2 1 0 0 nan nan 0 0 0 nan 0 0 0 0 0 0 0 0 0 0 3 6 3 3 3 5 4 3 3 2 1 2 2 1 0 0 0 1 2 2 3